Regional Weather Roundup
Issued by NWS

Home | Current Version | Previous Version | Graphics & Text | Print | Product List | Glossary On
Versions: 1 2 3 4 5 6 7 8 9 10 11 12 13 14 15 16 17 18 19 20 21 22 23 24 25 26 27
000
ASUS45 KTFX 281310
RWRMT
MONTANA REGIONAL WEATHER ROUNDUP
NATIONAL WEATHER SERVICE GREAT FALLS MT
700 AM MDT FRI JUL 28 2017

NOTE: "FAIR" INDICATES FEW OR NO CLOUDS BELOW 12000 FEET WITH NO
SIGNIFICANT WEATHER AND/OR OBSTRUCTIONS TO VISIBILITY.

MTZ001>007-043-281400-
WEST OF THE DIVIDE

CITY           SKY/WX    TMP DP  RH WIND       PRES   REMARKS
KALISPELL      CLEAR     50  47  89 CALM      30.06R
MISSOULA       CLEAR     58  49  72 CALM      30.11R
BUTTE          CLEAR     48  42  80 SE5       30.25S
MULLAN PASS    CLEAR     60  33  36 CALM      30.22R
ANACONDA         N/A     57  46  67 S8        30.21R
DEER LODGE       N/A     52  46  82 CALM      30.22R
EUREKA           N/A     54  45  71 MISG      30.04R
HAMILTON         N/A     61  50  67 S13       30.12R
LIBBY            N/A     48  43  81 CALM      30.05R
$$

MTZ008-052>055-281400-
SOUTHWEST MONTANA

CITY           SKY/WX    TMP DP  RH WIND       PRES   REMARKS
BOZEMAN        CLEAR     56  49  77 SE7       30.19R
DILLON         CLOUDY    51  44  77 S13       30.23R
W YELLOWSTONE  FOG       43  45 100 CALM      30.34R VSB<1/4
ENNIS          CLEAR     52  45  76 CALM      30.29R
THREE FORKS      N/A     54  49  83 CALM      30.15R
$$

MTZ009-010-012-014-046-048-049-054-281400-
EAST SLOPES AND CENTRAL MONTANA

CITY           SKY/WX    TMP DP  RH WIND       PRES   REMARKS
CUT BANK       CLEAR     59  54  83 N12       30.10R
GREAT FALLS    CLEAR     65  44  46 SW10      30.07R
MALMSTROM AFB  CLEAR     63  45  53 W7        30.07R
HELENA         PTCLDY    63  49  60 NW3       30.13S
CHOTEAU          N/A     66  39  37 NW6       30.11R
$$

MTZ011-013-016-021-045-047-050-051-281400-
NORTH CENTRAL MONTANA

CITY           SKY/WX    TMP DP  RH WIND       PRES   REMARKS
HAVRE          CLEAR     66  48  52 SW13      29.98R
LEWISTOWN      CLEAR     63  45  51 SW8       30.09R
N BAR RANCH      N/A     70  43  37 NW14      30.11R
CHINOOK          N/A     63  48  59 W3        29.97R
$$

MTZ017>020-022>027-061-062-281400-
NORTHEAST MONTANA

CITY           SKY/WX    TMP DP  RH WIND       PRES   REMARKS
GLASGOW        SUNNY     63  54  72 SE15      29.96R
JORDAN           N/A     63  53  70 CALM      29.98S
SIDNEY         SUNNY     63  59  87 E3        30.00S
WOLF POINT     SUNNY     63  56  78 E5        29.99S
MALTA          MOSUNNY   66  54  63 CALM      29.96R
PLENTYWOOD       N/A     64  59  82 CALM      30.01R
POPLAR           N/A     63  55  77 CALM      30.00R
$$

MTZ028>42-056>058-281400-
SOUTHCENTRAL AND SOUTHEAST MONTANA

CITY           SKY/WX    TMP DP  RH WIND       PRES   REMARKS
BAKER          SUNNY     62  55  77 SE12      30.03R
BILLINGS       CLOUDY    69  49  48 SW13      30.05R
LIVINGSTON     CLEAR     57  47  69 NW14      30.16R
MILES CITY     SUNNY     63  53  70 NE5       29.99R
BIG TIMBER     CLEAR     64  46  52 W20G28    30.14R
FORSYTH          N/A     66  55  68 CALM      29.99R
LAUREL           N/A     66  49  54 SW3       30.04F
$$

REGIONAL REPORTS...DAKOTAS

CITY           SKY/WX    TMP DP  RH WIND       PRES   REMARKS
WILLISTON      SUNNY     66  62  87 CALM      30.01R
MINOT          SUNNY     70  59  68 SE7       30.03R
DICKINSON      CLOUDY    67  60  78 SE9       30.02S
BEACH            N/A     64  59  82 SE7       30.05S
CROSBY           N/A     63  63 100 S6        30.02R
TIOGA            N/A     64  64 100 S5        30.05R
WATFORD CITY     N/A     64  61  88 SE6       30.01R
BISMARCK       MOSUNNY   69  62  78 E6        30.06R
GRAND FORKS    MOSUNNY   66  62  87 CALM      30.08S
FARGO          PTSUNNY   69  62  78 CALM      30.09R
BUFFALO SD       N/A     63  58  83 S13       29.98S
RAPID CITY     CLOUDY    62  56  80 SW5       30.06R
$$

REGIONAL REPORTS...WYOMING/IDAHO/WASHINGTON

CITY           SKY/WX    TMP DP  RH WIND       PRES   REMARKS
GILLETTE       SUNNY     63  58  83 SE6       30.10R
SHERIDAN       SUNNY     61  52  72 CALM      30.08R
BUFFALO WY     CLOUDY    65  48  54 NW8       30.14R
CODY           CLEAR     65  47  52 SW5       30.17R
YELLOWSTONE LA   N/A     41  41 100 CALM      30.41R
IDAHO FALLS    CLEAR     50  50 100 N5        30.22R
BOISE          PTCLDY    69  44  40 CALM      30.03R
SPOKANE        PTCLDY    61  38  42 S7        30.02R
$$

REGIONAL REPORTS...ALBERTA

CITY           SKY/WX    TMP DP  RH WIND       PRES   REMARKS
EDMONTON       CLEAR     54  52  94 W7        29.99R
CALGARY        MOCLDY    61  46  59 W3        30.08R
LETHBRIDGE     PTCLDY    61  50  67 W5        30.08R
MEDICINE HAT   PTCLDY    63  52  67 W15       30.00R
WATERTON GATE    N/A     54  50  87 NE1         N/A
CARDSTON         N/A     57  52  82 SW5         N/A
MILK RIVER       N/A     61  55  82 NW12        N/A
$$

REGIONAL REPORTS...SASKATCHEWAN

CITY           SKY/WX    TMP DP  RH WIND       PRES   REMARKS
SWIFT CURRENT  PTSUNNY   66  55  68 SW13      29.90R
REGINA         MOSUNNY   63  57  82 SE13      29.96S
SASKATOON      LGT RAIN  64  59  82 SW5       29.87S
CYPRESS HILLS    N/A     61  48  63 NW9         N/A
VAL MARIE        N/A     63  54  72 S6          N/A
ROCKGLEN         N/A     61  55  82 S14         N/A
ASSINIBOIA       N/A     57  54  88 NW1         N/A
$$




USA.gov is the U.S. government's official web portal to all federal, state and local government web resources and services.